Flag for Pakistan Weather past 2 weeks in Lahore, Pakistan

Now
104 °F

Clear.


Feels Like: 99 °F
Forecast: 71 / 105 °F
Wind: 12 mph from Northwest

Location: Lahore Airport

Current Time: May 26, 2015 at 5:39:38 PM

Latest Report: May 26, 2015 at 4:55 PM


Visibility: 6 mi

Pressure: 29.56 "Hg

Humidity: 10%

Dew point: 37 °F

Location of LahoreLocation

Historic Weather in Lahore — Graph

°F

Lahore temperature yesterday

Maximum temperature yesterday: 109 °F (at 3:55 PM)
Minimum temperature yesterday: 84 °F (at 3:25 AM)
Average temperature yesterday: 97 °F

Past Weeks' High & Low Weather Summary

 TemperatureHumidityPressure
High111 °F (May 23, 2:25 PM)83% (May 11, 9:25 PM)29.89 "Hg (May 11, 9:25 PM)
Low70 °F (May 13, 4:55 AM)8% (May 26, 12:55 PM)29.42 "Hg (May 23, 3:55 PM)
Average91 °F39%29.63 "Hg
* Reported May 11 4:25 PM — May 26 4:25 PM, Lahore, Weather by CustomWeather, © 2015

Note: Actual official high and low records may vary slightly from our data, if they occured in-between our weather recording intervals... More about our weather records

Advertising

Lahore weather history for previous 24 hours

 ConditionsComfort  
Time TempWeatherWind HumidityBarometerVisibility
4:25 PM
Tue, May 26
106 °FClear.14 mph8%29.56 "Hg6 mi
3:55 PM106 °FClear.13 mph8%29.56 "Hg6 mi
3:25 PM104 °FClear.13 mph9%29.56 "Hg6 mi
2:55 PM104 °FClear.12 mph9%29.56 "Hg6 mi
2:25 PM102 °FClear.12 mph9%29.56 "Hg6 mi
1:25 PM102 °FClear.15 mph8%29.59 "Hg6 mi
12:55 PM100 °FClear.15 mph8%29.59 "Hg6 mi
12:25 PM100 °FClear.14 mph10%29.62 "Hg5 mi
11:55 AM99 °FClear.15 mph10%29.62 "Hg5 mi
11:25 AM99 °FClear.15 mph12%29.62 "Hg5 mi
10:55 AM97 °FClear.20 mph13%29.62 "Hg5 mi
10:25 AM95 °FClear.18 mph18%29.62 "Hg5 mi
9:55 AM93 °FClear.16 mph19%29.62 "Hg5 mi
9:25 AM91 °FClear.15 mph28%29.59 "Hg4 mi
8:55 AM90 °FClear.14 mph29%29.59 "Hg4 mi
8:25 AM88 °FHaze.14 mph35%29.59 "Hg3 mi
7:55 AM86 °FHaze.14 mph38%29.59 "Hg3 mi
7:30 AM84 °FHaze.13 mph40%29.59 "Hg2 mi
7:00 AM82 °FHaze.8 mph42%29.56 "Hg2 mi
6:30 AM82 °FHaze.8 mph42%29.56 "Hg2 mi
6:00 AM81 °FHaze.13 mph45%29.53 "Hg2 mi
4:30 AM82 °FHaze.12 mph42%29.50 "Hg2 mi
4:00 AM82 °FHaze.12 mph42%29.50 "Hg2 mi
3:30 AM82 °FHaze.12 mph42%29.50 "Hg2 mi
2:55 AM82 °FHaze.5 mph42%29.47 "Hg2 mi
2:25 AM84 °FHaze.7 mph40%29.47 "Hg2 mi
1:25 AM88 °FHaze.9 mph35%29.47 "Hg2 mi
1:00 AM88 °FHaze.7 mph35%29.50 "Hg2 mi
12:25 AM90 °FHaze.9 mph31%29.50 "Hg2 mi
11:55 PM
Mon, May 25
90 °FHaze.12 mph31%29.50 "Hg2 mi
11:25 PM90 °FDuststorm.18 mph31%29.50 "Hg2 mi
10:55 PM91 °FDuststorm.21 mph28%29.50 "Hg2 mi
10:30 PM95 °FDuststorm.22 mph25%29.50 "Hg2 mi
9:55 PM95 °FHaze.7 mph25%29.47 "Hg3 mi
9:25 PM97 °FHaze.5 mph22%29.45 "Hg3 mi
8:55 PM97 °FHaze.7 mph22%29.45 "Hg3 mi
8:25 PM99 °FHaze.9 mph21%29.45 "Hg3 mi
7:55 PM100 °FClear.9 mph18%29.45 "Hg4 mi
7:25 PM100 °FPassing clouds.8 mph20%29.42 "Hg4 mi
6:55 PM102 °FPassing clouds.8 mph18%29.42 "Hg4 mi
6:25 PM104 °FPassing clouds.8 mph19%29.42 "Hg4 mi
5:55 PM106 °FClear.7 mph18%29.42 "Hg4 mi
5:25 PM108 °FPassing clouds.8 mph17%29.42 "Hg4 mi
Weather by CustomWeather, © 2015

See weather overviewHow to use our weather pages